Weather History for Chehalis, WA

Change the Weather History Date:

Friday, January 31, 2014

  Actual Average (KOLM) Record (KOLM)
Temperature  
Mean Temperature 42 °F 40 °F  
Max Temperature 48 °F 48 °F 61 °F (1954)
Min Temperature 35 °F 33 °F 1 °F (1950)
Degree Days  
Heating Degree Days 24 25  
Month to date heating degree days 785  
Since 1 July heating degree days 3051  
Cooling Degree Days 0 0  
Month to date cooling degree days 0  
Year to date cooling degree days 0  
Moisture  
Dew Point 39 °F    
Average Humidity 92    
Maximum Humidity 100    
Minimum Humidity 76    
Precipitation  
Precipitation 0.01 in 0.23 in 2.55 in (1987)
Month to date precipitation 7.84  
Year to date precipitation 7.84  
Sea Level Pressure  
Sea Level Pressure 30.08 in    
Wind  
Wind Speed 4 mph (South)    
Max Wind Speed 8 mph    
Max Gust Speed -    
Visibility 7 miles    
Events Fog , Rain    
T = Trace of Precipitation, MM = Missing Value Source: NWS Daily Summary

Daily Weather History Graph

Daily Weather History Graph

Search for Another Location

Airport:

Trip Planner

Search our weather history database for the weather conditions in past years. The results will help you decide how hot, cold, wet, or windy it might be!

Date:

Astronomy

Jan. 31, 2014 Rise Set
Actual Time 7:37 AM PST 5:14 PM PST
Civil Twilight 7:04 AM PST 5:46 PM PST
Nautical Twilight 6:28 AM PST 6:23 PM PST
Astronomical Twilight 5:52 AM PST 6:58 PM PST
Moon 7:43 AM PST (1/31) 6:53 PM PST (1/31)
Length of Visible Light 10h 42m
Length of Day
9h 37m
New Moon, 1% of the Moon is Illuminated
Jan 31
New Moon
Feb 6
First Quarter
Feb 14
Full
Feb 22
Last Quarter
Mar 1
New

Hourly Weather History & Observations

Time (PST) Temp. Windchill Dew Point Humidity Pressure Visibility Wind Dir Wind Speed Gust Speed Precip Events Conditions
12:15 AM 41.0 °F 37.1 °F 39.2 °F 93% 29.96 in 10.0 mi South 5.8 mph - N/A   Overcast
12:35 AM 41.0 °F 39.0 °F 39.2 °F 93% 29.96 in 10.0 mi South 3.5 mph - N/A   Overcast
12:55 AM 41.0 °F 37.1 °F 39.2 °F 93% 29.96 in 10.0 mi South 5.8 mph - N/A   Overcast
1:15 AM 41.0 °F 37.1 °F 39.2 °F 93% 29.97 in 10.0 mi South 5.8 mph - N/A   Overcast
1:35 AM 41.0 °F 38.0 °F 39.2 °F 93% 29.97 in 10.0 mi SSW 4.6 mph - N/A Rain Light Rain
1:55 AM 41.0 °F 39.0 °F 39.2 °F 93% 29.97 in 10.0 mi SSW 3.5 mph - N/A   Overcast
2:15 AM 39.2 °F 35.0 °F 39.2 °F 100% 29.98 in 9.0 mi South 5.8 mph - N/A   Overcast
2:35 AM 41.0 °F 37.1 °F 39.2 °F 93% 29.98 in 10.0 mi South 5.8 mph - N/A   Overcast
2:55 AM 41.0 °F 38.0 °F 39.2 °F 93% 29.98 in 10.0 mi South 4.6 mph - N/A   Overcast
3:15 AM 39.2 °F 35.0 °F 39.2 °F 100% 29.98 in 10.0 mi South 5.8 mph - N/A   Overcast
3:35 AM 39.2 °F 35.9 °F 39.2 °F 100% 29.98 in 10.0 mi South 4.6 mph - N/A   Overcast
3:55 AM 39.2 °F 34.2 °F 39.2 °F 100% 29.98 in 10.0 mi South 6.9 mph - N/A   Overcast
4:15 AM 39.2 °F 37.0 °F 39.2 °F 100% 29.99 in 10.0 mi SSW 3.5 mph - N/A   Overcast
4:35 AM 39.2 °F 37.0 °F 39.2 °F 100% 30.00 in 10.0 mi SSW 3.5 mph - N/A   Overcast
4:55 AM 39.2 °F 37.0 °F 39.2 °F 100% 30.00 in 10.0 mi South 3.5 mph - N/A   Overcast
5:15 AM 41.0 °F 38.0 °F 39.2 °F 93% 30.01 in 10.0 mi South 4.6 mph - N/A   Overcast
5:35 AM 41.0 °F 38.0 °F 39.2 °F 93% 30.01 in 10.0 mi SSW 4.6 mph - N/A   Overcast
5:55 AM 41.0 °F - 39.2 °F 93% 30.01 in 10.0 mi Calm Calm - N/A   Overcast
6:15 AM 41.0 °F 38.0 °F 39.2 °F 93% 30.02 in 10.0 mi South 4.6 mph - N/A   Overcast
6:35 AM 41.0 °F 38.0 °F 39.2 °F 93% 30.02 in 10.0 mi South 4.6 mph - N/A   Overcast
6:55 AM 41.0 °F 38.0 °F 39.2 °F 93% 30.03 in 10.0 mi South 4.6 mph - N/A   Overcast
7:15 AM 41.0 °F 37.1 °F 39.2 °F 93% 30.03 in 10.0 mi South 5.8 mph - N/A   Overcast
7:35 AM 41.0 °F 38.0 °F 39.2 °F 93% 30.04 in 5.0 mi South 4.6 mph - N/A Rain Light Rain
7:55 AM 41.0 °F 38.0 °F 39.2 °F 93% 30.05 in 9.0 mi South 4.6 mph - N/A Rain Light Rain
8:15 AM 41.0 °F 38.0 °F 39.2 °F 93% 30.05 in 10.0 mi South 4.6 mph - N/A   Overcast
8:35 AM 41.0 °F 37.1 °F 39.2 °F 93% 30.06 in 10.0 mi SSW 5.8 mph - N/A   Overcast
8:55 AM 41.0 °F 36.4 °F 39.2 °F 93% 30.06 in 10.0 mi South 6.9 mph - N/A   Overcast
9:15 AM 41.0 °F 39.0 °F 39.2 °F 93% 30.07 in 2.0 mi South 3.5 mph - N/A   Overcast
9:35 AM 41.0 °F 37.1 °F 41.0 °F 100% 30.08 in 9.0 mi South 5.8 mph - N/A   Overcast
9:55 AM 42.8 °F 41.1 °F 41.0 °F 93% 30.09 in 6.0 mi South 3.5 mph - N/A   Overcast
10:15 AM 42.8 °F 39.3 °F 41.0 °F 93% 30.10 in 10.0 mi South 5.8 mph - N/A   Overcast
10:35 AM 42.8 °F 38.0 °F 41.0 °F 93% 30.10 in 5.0 mi South 8.1 mph - N/A   Overcast
10:55 AM 44.6 °F 41.4 °F 41.0 °F 87% 30.10 in 4.0 mi SSE 5.8 mph - N/A   Mostly Cloudy
11:15 AM 46.4 °F 45.2 °F 41.0 °F 81% 30.10 in 5.0 mi South 3.5 mph - N/A   Haze
11:35 AM 46.4 °F 43.5 °F 41.0 °F 81% 30.10 in 7.0 mi SSE 5.8 mph - N/A   Mostly Cloudy
11:55 AM 46.4 °F 43.5 °F 41.0 °F 81% 30.10 in 5.0 mi South 5.8 mph - N/A   Haze
12:15 PM 46.4 °F 44.3 °F 41.0 °F 81% 30.09 in 10.0 mi SSE 4.6 mph - N/A   Mostly Cloudy
12:35 PM 46.4 °F 42.9 °F 41.0 °F 81% 30.09 in 10.0 mi South 6.9 mph - N/A   Mostly Cloudy
12:55 PM 48.2 °F - 41.0 °F 76% 30.09 in 10.0 mi South 5.8 mph - N/A   Mostly Cloudy
1:15 PM 48.2 °F - 41.0 °F 76% 30.09 in 5.0 mi South 3.5 mph - N/A   Haze
1:35 PM 46.4 °F 45.2 °F 41.0 °F 81% 30.10 in 6.0 mi NW 3.5 mph - N/A Rain Light Rain
1:55 PM 44.6 °F - 39.2 °F 81% 30.10 in 8.0 mi Calm Calm - N/A   Mostly Cloudy
2:15 PM 46.4 °F - 39.2 °F 76% 30.09 in 5.0 mi Calm Calm - N/A   Haze
2:35 PM 46.4 °F - 39.2 °F 76% 30.10 in 5.0 mi Calm Calm - N/A   Haze
2:55 PM 48.2 °F - 41.0 °F 76% 30.10 in 9.0 mi SSW 3.5 mph - N/A   Mostly Cloudy
3:15 PM 48.2 °F - 41.0 °F 76% 30.10 in 5.0 mi South 3.5 mph - N/A   Haze
3:35 PM 48.2 °F - 41.0 °F 76% 30.11 in 9.0 mi Calm Calm - N/A   Mostly Cloudy
3:55 PM 46.4 °F 44.3 °F 41.0 °F 81% 30.11 in 8.0 mi North 4.6 mph - N/A Rain Light Rain
4:15 PM 44.6 °F - 41.0 °F 87% 30.12 in 8.0 mi Calm Calm - N/A   Mostly Cloudy
4:35 PM 44.6 °F - 42.8 °F 93% 30.12 in 8.0 mi Calm Calm - N/A   Overcast
4:55 PM 44.6 °F - 41.0 °F 87% 30.12 in 10.0 mi Calm Calm - N/A   Overcast
5:15 PM 42.8 °F - 41.0 °F 93% 30.13 in 10.0 mi Calm Calm - N/A   Mostly Cloudy
5:35 PM 41.0 °F - 41.0 °F 100% 30.13 in 10.0 mi Calm Calm - N/A   Overcast
5:55 PM 41.0 °F - 41.0 °F 100% 30.14 in 10.0 mi Calm Calm - N/A   Overcast
6:15 PM 41.0 °F - 41.0 °F 100% 30.14 in 7.0 mi Calm Calm - N/A   Overcast
6:35 PM 39.2 °F - 39.2 °F 100% 30.14 in 8.0 mi Calm Calm - N/A   Overcast
6:55 PM 37.4 °F - 37.4 °F 100% 30.14 in 10.0 mi Calm Calm - N/A   Mostly Cloudy
7:15 PM 37.4 °F - 37.4 °F 100% 30.14 in 9.0 mi Calm Calm - N/A   Mostly Cloudy
7:35 PM 35.6 °F - 35.6 °F 100% 30.15 in 10.0 mi Calm Calm - N/A   Overcast
7:55 PM 37.4 °F - 37.4 °F 100% 30.15 in 0.5 mi Calm Calm - 0.01 in Fog Fog
8:15 PM 37.4 °F - 37.4 °F 100% 30.15 in 0.2 mi Calm Calm - N/A Fog Fog
8:35 PM 37.4 °F - 37.4 °F 100% 30.15 in 0.2 mi Calm Calm - N/A Fog Fog
8:55 PM 37.4 °F - 37.4 °F 100% 30.16 in 0.2 mi Calm Calm - N/A Fog Fog
9:15 PM 35.6 °F 32.8 °F 35.6 °F 100% 30.16 in 0.2 mi WSW 3.5 mph - N/A Fog Fog
9:35 PM 37.4 °F - 37.4 °F 100% 30.16 in 0.2 mi Calm Calm - N/A Fog Fog
9:55 PM 37.4 °F - 37.4 °F 100% 30.16 in 0.2 mi Calm Calm - N/A Fog Fog
10:15 PM 37.4 °F - 37.4 °F 100% 30.16 in 0.2 mi Calm Calm - N/A Fog Fog
10:35 PM 37.4 °F - 37.4 °F 100% 30.16 in 0.2 mi Calm Calm - N/A Fog Fog
10:55 PM 37.4 °F - 37.4 °F 100% 30.17 in 0.2 mi Calm Calm - N/A Fog Fog
11:15 PM 37.4 °F - 37.4 °F 100% 30.17 in 1.0 mi Calm Calm - N/A   Overcast
11:35 PM 39.2 °F - 39.2 °F 100% 30.18 in 0.5 mi Calm Calm - N/A Fog Fog
11:55 PM 39.2 °F - 39.2 °F 100% 30.18 in 1.5 mi Calm Calm - N/A   Overcast